DateTime,Index
2006082418,0.0
2006082500,0.0
2006082506,0.0
2006082512,1225.0
2006082518,1225.0
2006082600,1600.0
2006082606,2025.0
2006082612,2500.0
2006082618,3025.0
2006082700,3025.0
2006082706,4225.0
2006082712,3025.0
2006082718,2025.0
2006082800,1600.0
2006082806,1600.0
2006082812,1225.0
2006082818,1225.0
2006082900,1225.0
2006082906,1600.0
2006082912,1600.0
2006082918,1600.0
2006083000,1600.0
2006083006,1600.0
2006083012,1225.0
2006083018,1225.0
2006083100,1225.0
2006083106,2025.0
2006083112,3025.0
2006083118,3600.0
2006090100,3600.0
2006090106,2500.0
2006090112,0.0
2006090118,1600.0
2006090200,1600.0
2006090206,1600.0
2006090212,1600.0
2006090218,1600.0
2006090300,1225.0
2006090306,0.0
2006090312,0.0
2006090318,0.0
2006090400,0.0
2006090406,0.0
